Location: East Irvine
(33.6759°N, 117.7598°W)
Time: 23:02:19
(UTC+00:00)

IRS-1C - Pass Details

Date: 15 November 2025
Orbit: 813 x 814 km, 99.0° (Epoch: 13 December)

Event Time Altitude Azimuth Distance (km) Brightness Sun altitude
Rises 01:26:34 0° 162° (SSE) 3,322 7.3 -8.3°
Reaches altitude 10° 01:28:54 10° 161° (SSE) 2,394 6.6 -8.8°
Maximum altitude 01:34:12 80° 75° (ENE) 829 4.1 -9.9°
Drops below altitude 10° 01:39:31 10° 349° (N) 2,408 6.5 -10.9°
Sets 01:41:52 0° 349° (NNW) 3,343 7.3 -11.4°
